Regional Weather Roundup
Issued by NWS Bismarck, ND

Home | Current Version | Previous Version | Text Only | Print | Product List | Glossary On
Versions: 1 2 3 4 5 6 7 8 9 10 11 12 13 14 15 16 17 18 19 20 21 22 23 24 25 26 27 28 29 30 31 32 33 34 35 36 37 38 39 40 41 42 43 44 45 46 47 48 49 50
000
ASUS43 KBIS 211620
RWRBIS

NWR BROADCAST TEXT
NATIONAL WEATHER SERVICE BISMARCK ND
1100 AM CDT THU AUG 21 2014

NOTE: "FAIR" INDICATES FEW OR NO CLOUDS BELOW 12,000 FEET WITH NO
SIGNIFICANT WEATHER AND/OR OBSTRUCTIONS TO VISIBILITY.


CITY           SKY/WX    TMP DP  RH WIND       PRES   REMARKS
WILLISTON      CLOUDY    67  60  78 N12       29.93S
MINOT          CLOUDY    69  63  81 NW13      29.84R
MINOT AFB      CLOUDY    66  66  99 NW14      29.85R
BISMARCK       PTSUNNY   73  65  75 NW12      29.86R
DICKINSON      MOSUNNY   69  63  81 NW10      29.91S
GARRISON         N/A     68  64  87 NW8       29.86R
HETTINGER ARPT SUNNY     72  63  73 NW8       29.94R
JAMESTOWN      PTSUNNY   73  67  81 W7        29.78R
BEACH            N/A     64  64 100 CALM      29.97S
CARRINGTON     CLOUDY    68  68 100 NW13      29.81R FOG
CROSBY         CLOUDY    63  63 100 N9        29.93R
HARVEY         CLOUDY    68  68 100 NW10      29.82R
HAZEN          PTSUNNY   68  63  83 NW10      29.88S
LINTON         PTSUNNY   70  68  94 NW15      29.85R
MANDAN         PTSUNNY   70  64  83 NW10      29.88R
RUGBY          PTSUNNY   68  68 100 N8        29.82R
STANLEY        PTSUNNY   68  66  94 NW13      29.90R
TIOGA          CLOUDY    63  63 100 N14       29.95R
WATFORD CITY   FAIR      72  59  64 N12       29.91R
$$

CITY           SKY/WX    TMP DP  RH WIND       PRES   REMARKS
GRAND FORKS    CLOUDY    74  67  78 SE12      29.76F
GRAND FORKS AF CLOUDY    72  71  95 E3        29.78S
DEVILS LAKE    CLOUDY    72  64  78 SE6       29.77F
FARGO          CLOUDY    73  68  84 E7        29.76S
CANDO          CLOUDY    72  66  83 E6        29.81R
CAVALIER       FAIR      72  66  83 E6        29.79F
GRAFTON        CLOUDY    70  66  88 E5        29.79R
GWINNER        PTSUNNY   75  70  83 W3        29.78R
LANGDON        CLOUDY    68  66  94 NE3       29.82R
ROLLA          PTSUNNY   66  66 100 N6        29.85R
WALHALLA         N/A     68  68 100 CALM      29.80R
$$

CITY           SKY/WX    TMP DP  RH WIND       PRES   REMARKS
ABERDEEN       PTSUNNY   72  67  84 NW9       29.78R
MOBRIDGE       MOSUNNY   73  66  78 N14       29.82S
BUFFALO          N/A     73  59  61 N7        29.90R
RAPID CITY     MOSUNNY   75  57  53 NE9       29.98R
GLASGOW        PTSUNNY   68  60  75 N6        29.97R
SIDNEY         MOSUNNY   70  63  78 N5        29.95R
WOLF POINT     RAIN      64  60  87 NE6       29.97R FOG
GLENDIVE       CLOUDY    66  61  82 NE3       29.97R
MILES CITY     CLOUDY    66  57  72 W7        29.99R
BAKER          PTSUNNY   66  59  78 W5        29.98S
$$

CITY           SKY/WX    TMP DP  RH WIND       PRES   REMARKS
BILLINGS       PTSUNNY   64  55  72 E6        30.04R
GREAT FALLS    CLOUDY    57  52  82 N9        30.09R
REGINA         PTSUNNY   61  55  82 N13G20    29.97R
ESTEVAN        CLOUDY    64  63  94 NW10      29.91R
$$



USA.gov is the U.S. government's official web portal to all federal, state and local government web resources and services.